Location: Shenandoah County Park
(38.9356°N, 78.4524°W)
Time: 18:27:55
(UTC-05:00)

A-11 Canister half - Pass Details

Date: 12 December 2023
Orbit: 1526 x 1682 km, 47.3° (Epoch: 01 March)

Event Time Altitude Azimuth Distance (km) Brightness Sun altitude
Rises 01:09:03 0° 297° (WNW) 4,906 - -69.4°
Reaches altitude 10° 01:12:39 10° 288° (WNW) 3,898 - -68.9°
Maximum altitude 01:21:01 32° 231° (SW) 2,510 - -67.7°
Drops below altitude 10° 01:29:10 10° 172° (S) 3,781 - -66.4°
Sets 01:32:38 0° 163° (SSE) 4,740 - -65.9°
